Accueil
METAR-TAF:

METAR-TAF

Aéroports :

Turin, Italie

latitude: 45-05-20N, longitude: 007-36-20E, altitude: 288 m

Observation

Le bulletin a été fait il y a 5 heures et 12 minutes, à 15:50 UTC
Vent 4 kt de sud
Température 6°C
Humidité 93%
Pression 1015 hPa
Visibilité 10 km ou plus
Nuages fragmentés à une hauteur de 3500 ft
pluie

METAR: LIMA 211550Z 19004KT 9999 RA BKN035 06/05 Q1015

Heure: 22:02 (21:02 UTC)


TAF: absent

Observations et prévisions météorologiques de plus de 4000 aéroports (messages METAR et TAF).

Les stations disponibles sont représentées par des disques jaunes et rouges sur la carte.

Passer la souris dessus pour voir le nom de la station.

Cliquer dessus pour voir les observations et prévisions météorologiques.

Pour changer de carte: cliquez sur les boutons verts avec une croix noire pour zoomer, sur le bouton vert avec un tiret pour effectuer un zoom arrière, ou sur les flèches vertes pour les cartes adjacentes.


METAR-TAF: